Location: Tel Aviv
(32.0670°N, 34.7670°E)
Time: 20:25:53
(UTC+02:00)

CUTE-I - Pass Details

Date: 20 December 2025
Orbit: 805 x 817 km, 98.7° (Epoch: 21 January)

Event Time Altitude Azimuth Distance (km) Brightness Sun altitude
Rises 18:05:11 0° 193° (SSW) 3,303 ? -17.5°
Reaches altitude 10° 18:07:49 10° 204° (SSW) 2,377 ? -18.0°
Maximum altitude 18:12:17 28° 263° (W) 1,469 ? -18.9°
Drops below altitude 10° 18:16:47 10° 322° (NW) 2,394 ? -19.9°
Sets 18:19:28 0° 333° (NNW) 3,331 ? -20.4°
